Weather History for Mayport NS, FL

Change the Weather History Date:

Friday, July 12, 2013

  Actual Average Record
Temperature  
Mean Temperature 78 °F -  
Max Temperature 84 °F 87 °F 95 °F (2001)
Min Temperature 73 °F 73 °F 70 °F (2001)
Cooling Degree Days 12    
Growing Degree Days 28 (Base 50)    
Moisture  
Dew Point 73 °F    
Average Humidity 89    
Maximum Humidity 100    
Minimum Humidity 69    
Precipitation  
Precipitation 0.06 in - - ()
Sea Level Pressure  
Sea Level Pressure 29.92 in    
Wind  
Wind Speed 7 mph (South)    
Max Wind Speed 12 mph    
Max Gust Speed 18 mph    
Visibility 10 miles    
Events Rain , Thunderstorm    
Averages and records for this station are not official NWS values.
T = Trace of Precipitation, MM = Missing Value Source: NWS Daily Summary

Daily Weather History Graph

Daily Weather History Graph

Search for Another Location

Airport:

Trip Planner

Search our weather history database for the weather conditions in past years. The results will help you decide how hot, cold, wet, or windy it might be!

Date:

Astronomy

Jul. 12, 2013 Rise Set
Actual Time 6:32 AM EDT 8:30 PM EDT
Civil Twilight 6:05 AM EDT 8:57 PM EDT
Nautical Twilight 5:32 AM EDT 9:29 PM EDT
Astronomical Twilight 4:57 AM EDT 10:04 PM EDT
Moon 10:27 AM EDT (7/12) 11:02 PM EDT (7/12)
Length of Visible Light 14h 51m
Length of Day
13h 57m
Waxing Crescent, 17% of the Moon is Illuminated
Jul 12
Waxing Crescent
Jul 15
First Quarter
Jul 22
Full
Jul 29
Last Quarter
Aug 6
New

Hourly Weather History & Observations

Time (EDT) Temp. Heat Index Dew Point Humidity Pressure Visibility Wind Dir Wind Speed Gust Speed Precip Events Conditions
12:52 AM 75.0 °F - 71.1 °F 87% 29.95 in 10.0 mi SSW 9.2 mph - N/A   Partly Cloudy
1:52 AM 73.9 °F - 72.0 °F 93% 29.94 in 10.0 mi SSW 6.9 mph - N/A   Scattered Clouds
2:52 AM 73.0 °F - 72.0 °F 96% 29.92 in 10.0 mi SSW 6.9 mph - N/A   Scattered Clouds
3:52 AM 73.9 °F - 73.0 °F 97% 29.91 in 10.0 mi SW 5.8 mph - N/A   Partly Cloudy
4:52 AM 73.9 °F - 73.0 °F 97% 29.90 in 10.0 mi SW 5.8 mph - N/A   Clear
5:52 AM 73.0 °F - 73.0 °F 100% 29.90 in 10.0 mi SSW 4.6 mph - N/A   Clear
6:52 AM 73.0 °F - 73.0 °F 100% 29.92 in 10.0 mi SSW 5.8 mph - N/A   Clear
6:59 AM 73.4 °F - 73.4 °F 100% 29.92 in 10.0 mi SSW 5.8 mph - N/A   Scattered Clouds
7:52 AM 75.0 °F - 73.9 °F 96% 29.93 in 10.0 mi SSW 5.8 mph - N/A   Scattered Clouds
8:52 AM 80.1 °F 84.5 °F 73.9 °F 81% 29.94 in 10.0 mi SSW 5.8 mph - N/A   Scattered Clouds
9:52 AM 81.0 °F 86.2 °F 73.9 °F 79% 29.94 in 10.0 mi SSW 8.1 mph - N/A   Mostly Cloudy
10:52 AM 78.1 °F - 73.9 °F 87% 29.94 in 7.0 mi South 6.9 mph 18.4 mph 0.02 in Rain Light Rain
11:52 AM 82.0 °F 87.9 °F 73.9 °F 76% 29.93 in 10.0 mi ESE 6.9 mph - 0.00 in   Mostly Cloudy
12:52 PM 81.0 °F 86.7 °F 75.0 °F 82% 29.92 in 10.0 mi ESE 8.1 mph - 0.01 in   Mostly Cloudy
1:02 PM 80.6 °F 86.2 °F 75.2 °F 84% 29.92 in 10.0 mi ESE 11.5 mph - N/A   Mostly Cloudy
1:16 PM 82.4 °F 89.5 °F 75.2 °F 79% 29.91 in 10.0 mi ESE 9.2 mph - N/A Thunderstorm Mostly Cloudy
1:52 PM 82.0 °F 88.6 °F 75.0 °F 79% 29.91 in 10.0 mi SSE 10.4 mph - N/A Thunderstorm Mostly Cloudy
2:52 PM 81.0 °F 84.4 °F 70.0 °F 69% 29.91 in 10.0 mi West 5.8 mph - N/A Thunderstorm Mostly Cloudy
3:52 PM 80.1 °F 83.6 °F 71.1 °F 74% 29.94 in 10.0 mi ESE 11.5 mph - N/A Thunderstorm Overcast
4:52 PM 73.9 °F - 73.0 °F 97% 29.91 in 10.0 mi South 6.9 mph - 0.02 in Rain Light Rain
5:52 PM 75.0 °F - 73.0 °F 94% 29.91 in 10.0 mi South 4.6 mph - 0.01 in   Overcast
6:52 PM 77.0 °F - 72.0 °F 84% 29.90 in 10.0 mi SSE 5.8 mph - N/A   Clear
7:52 PM 75.9 °F - 72.0 °F 87% 29.91 in 10.0 mi South 3.5 mph - N/A   Clear
8:52 PM 75.0 °F - 73.0 °F 94% 29.91 in 8.0 mi Calm Calm - N/A   Clear
9:52 PM 75.0 °F - 72.0 °F 90% 29.93 in 10.0 mi SSW 4.6 mph - N/A   Clear
10:52 PM 75.0 °F - 73.0 °F 94% 29.95 in 10.0 mi SSW 4.6 mph - N/A   Clear
11:52 PM 75.0 °F - 73.9 °F 96% 29.95 in 10.0 mi SSW 3.5 mph - N/A   Clear